Randolph AFB, TX

3:36 AM CDT on June 24, 2017 (GMT -0500)
Randolph Air Force Base

Weather History for KRND - November, 2011

Change the Weather History Date:

Thursday, November 24, 2011

  Actual Average Record
Temperature  
Mean Temperature 59 °F -  
Max Temperature 73 °F 66 °F 84 °F (2010)
Min Temperature 45 °F 48 °F 26 °F (2003)
Degree Days  
Heating Degree Days 6    
Growing Degree Days 9 (Base 50)    
Moisture  
Dew Point 49 °F    
Average Humidity 71    
Maximum Humidity 96    
Minimum Humidity 40    
Precipitation  
Precipitation 0.00 in - - ()
Sea Level Pressure  
Sea Level Pressure 30.21 in    
Wind  
Wind Speed 5 mph (SE)    
Max Wind Speed 10 mph    
Max Gust Speed -    
Visibility 10 miles    
Events Rain    
Averages and records for this station are not official NWS values.
T = Trace of Precipitation, MM = Missing Value Source: NWS Daily Summary

Daily Weather History Graph

Daily Weather History Graph

Search for Another Location

Airport or City:

Trip Planner

Search our weather history database for the weather conditions in past years. The results will help you decide how hot, cold, wet, or windy it might be!

Date:

Astronomy

Nov. 24, 2011 Rise Set
Actual Time 7:04 AM CST 5:34 PM CST
Civil Twilight 6:38 AM CST 6:00 PM CST
Nautical Twilight 6:09 AM CST 6:29 PM CST
Astronomical Twilight 5:41 AM CST 6:58 PM CST
Moon 6:22 AM CST 5:09 PM CST
Length of Visible Light 11h 21m
Length of Day
10h 30m
Waning Crescent, 0% of the Moon is Illuminated
Nov 24
Waning Crescent
Nov 25
New
Dec 2
First Quarter
Dec 10
Full
Dec 17
Last Quarter

Hourly Weather History & Observations

Time (CST) Temp. Windchill Dew Point Humidity Pressure Visibility Wind Dir Wind Speed Gust Speed Precip Events Conditions
12:55 AM 49.3 °F - 46.4 °F 90% 30.26 in 10.0 mi NNW 4.6 mph - N/A   Clear
1:55 AM 48.7 °F - 46.8 °F 93% 30.25 in 10.0 mi North 5.8 mph - N/A   Clear
2:55 AM 48.4 °F - 46.8 °F 94% 30.24 in 10.0 mi North 5.8 mph - N/A   Clear
3:55 AM 48.0 °F - 46.4 °F 94% 30.23 in 10.0 mi NNW 3.5 mph - N/A   Clear
4:55 AM 46.2 °F 43.3 °F 45.1 °F 96% 30.23 in 10.0 mi NNW 5.8 mph - N/A   Clear
5:55 AM 45.7 °F 43.4 °F 44.6 °F 96% 30.25 in 10.0 mi NNW 4.6 mph - N/A   Clear
6:55 AM 45.1 °F 42.0 °F 44.1 °F 96% 30.26 in 10.0 mi NNW 5.8 mph - N/A   Clear
7:55 AM 48.0 °F - 46.9 °F 96% 30.27 in 10.0 mi North 4.6 mph - N/A   Clear
8:55 AM 55.6 °F - 50.0 °F 81% 30.29 in 10.0 mi Calm Calm - N/A   Clear
9:55 AM 62.4 °F - 52.5 °F 70% 30.29 in 10.0 mi SSE 3.5 mph - N/A   Clear
10:55 AM 66.4 °F - 52.9 °F 62% 30.27 in 10.0 mi Variable 4.6 mph - N/A   Clear
11:55 AM 69.1 °F - 52.9 °F 56% 30.25 in 10.0 mi South 4.6 mph - N/A   Clear
12:55 PM 70.7 °F - 51.1 °F 50% 30.21 in 10.0 mi SE 8.1 mph - N/A   Clear
1:55 PM 71.6 °F - 49.5 °F 45% 30.19 in 10.0 mi Variable 3.5 mph - N/A   Clear
2:21 PM 73.4 °F - 50.0 °F 44% 30.17 in 10.0 mi ESE 5.8 mph - N/A Rain Light Rain
2:30 PM 73.4 °F - 50.0 °F 44% 30.17 in 10.0 mi South 5.8 mph - N/A   Clear
2:55 PM 72.9 °F - 49.5 °F 44% 30.16 in 10.0 mi SE 10.4 mph - 0.00 in   Clear
3:55 PM 73.4 °F - 47.8 °F 40% 30.16 in 10.0 mi SSE 9.2 mph - N/A   Clear
4:55 PM 71.6 °F - 47.5 °F 42% 30.16 in 10.0 mi SSE 6.9 mph - N/A   Clear
5:55 PM 62.6 °F - 46.6 °F 56% 30.17 in 10.0 mi SE 5.8 mph - N/A   Clear
6:55 PM 61.5 °F - 46.9 °F 59% 30.17 in 10.0 mi ESE 4.6 mph - N/A   Clear
7:55 PM 58.6 °F - 46.6 °F 64% 30.17 in 10.0 mi ESE 4.6 mph - N/A   Clear
8:55 PM 60.1 °F - 51.3 °F 73% 30.16 in 10.0 mi SE 10.4 mph - N/A   Clear
9:55 PM 59.4 °F - 53.8 °F 82% 30.17 in 10.0 mi South 8.1 mph - N/A   Clear
10:55 PM 57.7 °F - 54.0 °F 87% 30.16 in 10.0 mi South 4.6 mph - N/A   Clear
11:55 PM 54.3 °F - 53.1 °F 95% 30.15 in 10.0 mi SE 6.9 mph - N/A   Clear